Weather History for St. Petersburg Airport, FL

Change the Weather History Date:

Saturday, September 7, 2013

  Actual Average Record
Temperature  
Mean Temperature 81 °F -  
Max Temperature 89 °F 89 °F 95 °F (1970)
Min Temperature 73 °F 75 °F 70 °F (1981)
Cooling Degree Days 16    
Growing Degree Days 31 (Base 50)    
Moisture  
Dew Point 72 °F    
Average Humidity 75    
Maximum Humidity 93    
Minimum Humidity 50    
Precipitation  
Precipitation 0.00 in - - ()
Sea Level Pressure  
Sea Level Pressure 29.99 in    
Wind  
Wind Speed 7 mph (NE)    
Max Wind Speed 14 mph    
Max Gust Speed 21 mph    
Visibility 10 miles    
Events Thunderstorm    
Averages and records for this station are not official NWS values.
T = Trace of Precipitation, MM = Missing Value Source: NWS Daily Summary

Daily Weather History Graph

Daily Weather History Graph

Search for Another Location

Airport:

Trip Planner

Search our weather history database for the weather conditions in past years. The results will help you decide how hot, cold, wet, or windy it might be!

Date:

Astronomy

Sep. 07, 2013 Rise Set
Actual Time 7:12 AM EDT 7:44 PM EDT
Civil Twilight 6:48 AM EDT 8:08 PM EDT
Nautical Twilight 6:20 AM EDT 8:35 PM EDT
Astronomical Twilight 5:52 AM EDT 9:03 PM EDT
Moon 9:09 AM EDT (9/7) 9:00 PM EDT (9/7)
Length of Visible Light 13h 19m
Length of Day
12h 32m
Waxing Crescent, 5% of the Moon is Illuminated
Sep 7
Waxing Crescent
Sep 12
First Quarter
Sep 19
Full
Sep 26
Last Quarter
Oct 4
New

Hourly Weather History & Observations

Time (EDT) Temp. Heat Index Dew Point Humidity Pressure Visibility Wind Dir Wind Speed Gust Speed Precip Events Conditions
12:53 AM 77.0 °F - 73.0 °F 88% 30.01 in 10.0 mi ENE 8.1 mph - N/A   Clear
1:53 AM 75.9 °F - 72.0 °F 87% 30.02 in 10.0 mi ENE 9.2 mph - N/A   Clear
2:53 AM 77.0 °F - 70.0 °F 79% 29.99 in 10.0 mi ENE 4.6 mph - N/A   Clear
3:53 AM 75.9 °F - 70.0 °F 82% 29.99 in 10.0 mi NNE 8.1 mph - N/A   Clear
4:53 AM 75.0 °F - 71.1 °F 87% 29.99 in 10.0 mi ENE 5.8 mph - N/A   Clear
5:53 AM 73.0 °F - 71.1 °F 93% 29.98 in 10.0 mi Calm Calm - N/A   Clear
6:53 AM 75.0 °F - 70.0 °F 84% 29.99 in 10.0 mi NE 9.2 mph - N/A   Clear
7:53 AM 75.9 °F - 71.1 °F 85% 30.00 in 10.0 mi NE 9.2 mph - N/A   Clear
8:53 AM 78.1 °F - 73.0 °F 84% 30.01 in 10.0 mi NE 8.1 mph - N/A   Clear
9:53 AM 80.1 °F 84.2 °F 73.0 °F 79% 30.02 in 10.0 mi ENE 4.6 mph - N/A   Clear
10:53 AM 82.0 °F 87.4 °F 73.0 °F 74% 30.04 in 10.0 mi ENE 6.9 mph - N/A   Clear
11:53 AM 84.0 °F 91.2 °F 73.9 °F 72% 30.04 in 10.0 mi ENE 8.1 mph - N/A   Partly Cloudy
12:53 PM 84.0 °F 90.2 °F 73.0 °F 69% 30.02 in 10.0 mi ENE 8.1 mph - N/A   Clear
1:53 PM 86.0 °F 92.2 °F 72.0 °F 63% 30.01 in 10.0 mi ENE 5.8 mph - N/A   Partly Cloudy
2:53 PM 87.1 °F 92.0 °F 70.0 °F 57% 29.98 in 10.0 mi NE 5.8 mph - N/A   Scattered Clouds
3:53 PM 89.1 °F 92.9 °F 68.0 °F 50% 29.96 in 10.0 mi North 3.5 mph - N/A   Scattered Clouds
4:53 PM 89.1 °F 94.1 °F 70.0 °F 53% 29.93 in 10.0 mi North 4.6 mph - N/A   Partly Cloudy
5:53 PM 87.1 °F 94.5 °F 73.0 °F 63% 29.93 in 10.0 mi NW 10.4 mph - N/A   Clear
6:53 PM 84.9 °F 91.4 °F 73.0 °F 67% 29.94 in 10.0 mi NNW 9.2 mph - N/A   Scattered Clouds
7:08 PM 84.2 °F 90.9 °F 73.4 °F 70% 29.95 in 10.0 mi NNW 11.5 mph - N/A Thunderstorm Mostly Cloudy
7:53 PM 80.1 °F 83.2 °F 70.0 °F 71% 29.96 in 10.0 mi NNE 13.8 mph 20.7 mph 0.00 in   Partly Cloudy
8:08 PM 80.6 °F 83.9 °F 69.8 °F 70% 29.97 in 10.0 mi NNE 10.4 mph - N/A Thunderstorm Thunderstorm
8:33 PM 80.6 °F 83.9 °F 69.8 °F 70% 29.97 in 10.0 mi NE 9.2 mph - N/A Thunderstorm Clear
8:53 PM 81.0 °F 86.2 °F 73.9 °F 79% 29.98 in 10.0 mi NNE 6.9 mph - N/A   Partly Cloudy
9:53 PM 77.0 °F - 73.0 °F 88% 29.99 in 10.0 mi SSW 3.5 mph - N/A   Scattered Clouds
10:53 PM 77.0 °F - 73.0 °F 88% 29.97 in 10.0 mi Calm Calm - N/A   Clear
11:53 PM 77.0 °F - 72.0 °F 84% 29.96 in 10.0 mi Calm Calm - N/A   Clear